Weather in Zhipkhegen

Russia / Zabaykalsky Krai     51°27′21″N   110°10′11″E
temp.,
°C
wind,
m/s
gust,
m/s
humid.,
%
clouds,
%
prec.,
mm/h
press.,
hPa
HPBL,
m
24 may, tue
tue2400:00+7nw2878100 1.1 1016255
03:00+6nw1287100 1.8 102043
06:00+3nw11875 0.0 102311
09:00+10nw13615 0.0 1024575
12:00+17nne33295 0.0 10232207
15:00+19nne33211 0.0 10212591
18:00+20n23203 0.0 10202698
21:00+14nnw11340 0.0 102110
25 may, wed
wed2500:00+9w11405 0.0 102310
03:00+7sw11480 0.0 102410
06:00+6se11525 0.0 102410
09:00+16sw1130100 0.0 1022316
12:00+21w2421100 0.0 10192708
15:00+23w3417100 0.0 10153755
18:00+23wnw331638 0.0 10133534
21:00+16w22341 0.0 101311
26 may, thu
thu2600:00+10nw11450 0.0 101410
03:00+8s115338 0.0 101310
06:00+7ssw1157100 0.0 101212
09:00+16s1234100 0.0 1009318
12:00+23w36210 0.0 10052499
15:00+26w581638 0.0 10013932
18:00+24nw691690 0.0 9993625
21:00+18nnw611353 0.0 10021211
27 may, fri
fri2700:00+10wnw25642 0.0 1004101
03:00+9w310702 0.0 1004317
06:00+9w512580 0.0 10031144
09:00+12wnw6104571 0.0 10031908
12:00+15nw692815 0.0 10022617
15:00+17nw710205 0.0 10013109
18:00+15nw810181 0.0 10012819
21:00+11nnw593093 0.0 10031236
28 may, sat
sat2800:00+5wnw224776 0.0 100513
03:00+3wnw1152100 0.0 100610
06:00+2wnw1154100 0.0 100610
09:00+8nw2339100 0.0 1005815
12:00+12nnw452774 0.0 10032289
15:00+15nw5716100 0.0 10013943
18:00+13nw781950 0.0 10033087
21:00+8nw59280 0.0 10061265